MCMWTC BRIDGEPORT, CA, CA

11:12 AM PDT on March 29, 2017 (GMT -0700)
MCMWTC BRIDGEPORT, CA

Weather History for KBAN - December, 2014

Change the Weather History Date:

Monday, December 29, 2014

  Actual Average (KTVL) Record (KTVL)
Temperature  
Mean Temperature 30 °F -  
Max Temperature 43 °F 39 °F 56 °F (2011)
Min Temperature 16 °F 18 °F -13 °F (1988)
Degree Days  
Heating Degree Days 36    
Moisture  
Dew Point -7 °F    
Average Humidity 25    
Maximum Humidity 68    
Minimum Humidity 9    
Precipitation  
Precipitation 0.00 in - - ()
Sea Level Pressure  
Sea Level Pressure 29.97 in    
Wind  
Wind Speed 8 mph (WSW)    
Max Wind Speed 24 mph    
Max Gust Speed 37 mph    
Averages and records for this station are not official NWS values.
T = Trace of Precipitation, MM = Missing Value Source: NWS Daily Summary

Daily Weather History Graph

Daily Weather History Graph

Search for Another Location

Airport or City:

Trip Planner

Search our weather history database for the weather conditions in past years. The results will help you decide how hot, cold, wet, or windy it might be!

Date:

Astronomy

Dec. 29, 2014 Rise Set
Actual Time 7:14 AM PST 4:45 PM PST
Civil Twilight 6:44 AM PST 5:15 PM PST
Nautical Twilight 6:11 AM PST 5:48 PM PST
Astronomical Twilight 5:39 AM PST 6:20 PM PST
Moon 12:21 PM PST 12:40 AM PST
Length of Visible Light 10h 30m
Length of Day
9h 31m
First Quarter, 62% of the Moon is Illuminated
Dec 29
First Quarter
Jan 4
Full
Jan 13
Last Quarter
Jan 20
New
Jan 26
First Quarter

Hourly Weather History & Observations

Time (PST) Temp. Windchill Dew Point Humidity Pressure Visibility Wind Dir Wind Speed Gust Speed Precip Events Conditions
12:52 AM 24.1 °F 19.7 °F -5.1 °F 28% 30.07 in - Variable 3.5 mph - N/A   Clear
1:52 AM 21.9 °F - -5.1 °F 30% 30.09 in - Calm Calm - N/A   Clear
2:52 AM 19.9 °F 14.9 °F -2.9 °F 37% 30.09 in - East 3.5 mph - N/A   Clear
3:52 AM 16.0 °F - -0.9 °F 47% 30.12 in - Calm Calm - N/A   Clear
4:52 AM 24.1 °F - -9.0 °F 23% 30.09 in - Calm Calm - N/A   Clear
5:52 AM 26.1 °F - -11.9 °F 19% 30.07 in - Calm Calm - N/A   Clear
6:52 AM 30.0 °F 26.5 °F -15.0 °F 14% 30.05 in - Variable 3.5 mph - N/A   Clear
7:52 AM 33.1 °F 24.4 °F -14.1 °F 13% 30.05 in - WSW 11.5 mph 18.4 mph N/A   Clear
8:52 AM 37.0 °F 27.4 °F -15.0 °F 10% 30.03 in - SW 17.3 mph 24.2 mph N/A   Clear
9:52 AM 39.9 °F 30.8 °F -15.0 °F 9% 30.01 in - SW 18.4 mph 26.5 mph N/A   Clear
10:52 AM 41.0 °F 32.2 °F -11.9 °F 10% 29.99 in - SW 18.4 mph 32.2 mph N/A   Clear
11:52 AM 43.0 °F 34.2 °F -11.0 °F 10% 29.96 in - WSW 20.7 mph 27.6 mph N/A   Clear
12:52 PM 43.0 °F 33.5 °F -9.9 °F 10% 29.93 in - SW 24.2 mph 33.4 mph N/A   Clear
1:52 PM 43.0 °F 33.5 °F -9.9 °F 10% 29.90 in - SW 24.2 mph 36.8 mph N/A   Clear
2:52 PM 41.0 °F 31.9 °F -9.0 °F 12% 29.92 in - WSW 19.6 mph 31.1 mph N/A   Clear
3:52 PM 37.9 °F 27.1 °F -9.0 °F 13% 29.94 in - SW 23.0 mph 32.2 mph N/A   Clear
4:52 PM 35.1 °F 24.8 °F -11.0 °F 14% 29.89 in - West 17.3 mph 34.5 mph N/A   Clear
5:52 PM 34.0 °F 24.2 °F -13.0 °F 13% 29.85 in - West 15.0 mph 28.8 mph N/A   Clear
6:52 PM 34.0 °F 27.2 °F -13.0 °F 13% 29.84 in - West 8.1 mph 25.3 mph N/A   Clear
7:52 PM 28.9 °F 23.9 °F -6.0 °F 22% 29.86 in - ENE 4.6 mph - N/A   Clear
8:52 PM 26.1 °F 19.4 °F 3.0 °F 37% 29.86 in - Variable 5.8 mph - N/A   Clear
9:52 PM 21.9 °F 17.2 °F 10.0 °F 60% 29.88 in - Variable 3.5 mph - N/A   Clear
10:52 PM 19.0 °F 13.9 °F 10.0 °F 68% 29.91 in - WSW 3.5 mph - N/A   Clear
11:52 PM 19.0 °F 13.9 °F 10.0 °F 68% 29.91 in - Variable 3.5 mph - N/A   Scattered Clouds